Probability
0 0 0 0 0 0 0 0 0 0 0 0 0 0 0 0 0 0 0 0 0 0 0 0 0 0 0 0 0 0 0 0 0 0 0 0 0 0 0 0 0 0 0
0 0 0 0 0 0 0 0 0 0 0 0 0 0 0 0 0 0 0 0 0 0 0 0 0 0 0 0 0 0 0 0 0 0 0 0 0 0 0 0 0 0 0
0 0 0 0 0 0 0 0 0 0 0 0 0 0 0 0 0 0 0 0 0 0 0 0 0 0 0 0 0 0 0 0 0 0 0 0 0 0 0 0 0 0 0
0 0 0 0 0 0 0 0 0 0 0 0 0 0 0 0 0 0 0 0 0 0 0 0 0 0 0 0 0 0 0 0 0 0 0 0 0 0 0 0 0 0 0
0 0 0 0 0 0 0 0 0 0 0 0 0 0 0 0 0 0 0 0 0 0 0 0 0 0 0 0 0 0 0 0 0 0 0 0 0 0 0 0 0 0 0
0 0 0 0 0 0 0 0 0 0 0 0 0 0 0 0 0 0 0 0 0 0 0 0 0 0 0 0 0 0 0 0 0 0 0 0 0 0 0 0 0 0 0
0 0 0 0 0 0 0 0 0 0 0 0 0 0 0 0 0 0 0 0 0 0 0 0 0 0 0 0 0 0 0 0 0 0 0 0 1 1 0 0 0 0 0
0 0 0 0 0 0 0 0 0 0 0 0 0 0 0 0 0 0 0 0 0 0 0 0 0 0 0 0 0 0 0 0 0 0 0 1 2 2 1 0 0 0 0
0 0 1 0 0 0 0 0 0 0 0 0 0 0 0 0 0 0 0 0 0 0 0 0 0 0 0 0 0 0 0 0 0 0 0 1 2 2 1 0 0 0 0
0 0 0 0 0 0 0 0 0 0 0 0 0 0 0 0 0 0 0 0 0 0 0 0 0 0 0 0 0 0 0 0 0 0 0 0 1 1 0 1 1 1 0
0 0 0 0 0 0 0 0 0 0 0 0 0 0 0 0 0 0 0 0 0 0 0 0 0 0 0 0 0 0 0 0 0 0 0 0 0 0 1 2 2 2 1
0 0 0 0 0 0 0 0 0 0 0 0 0 0 0 0 0 0 0 0 0 0 0 0 0 0 0 0 0 0 0 0 0 0 0 0 0 0 1 2 3 3 2
0 0 0 0 0 0 0 0 0 0 0 0 0 0 0 0 0 0 0 0 0 0 0 0 0 0 0 0 0 0 0 0 0 0 0 0 0 0 0 1 2 2 2
0 0 0 0 0 0 0 0 0 0 0 0 0 0 0 0 0 0 0 0 0 0 0 0 0 0 0 0 0 0 0 0 0 0 0 0 0 0 0 0 1 1 1
0 0 0 0 0 0 0 0 0 0 1 1 0 0 0 0 0 0 0 0 0 0 0 0 0 0 0 0 0 0 0 0 0 0 0 0 0 0 0 0 0 0 0
0 0 0 0 0 0 0 0 0 0 1 1 0 0 0 0 0 0 0 0 0 0 0 0 0 0 0 0 0 0 0 0 0 0 0 0 0 0 0 0 0 0 0
0 0 0 0 0 0 0 0 0 0 1 1 0 0 0 0 0 0 0 0 0 0 0 0 0 0 0 0 0 0 0 0 0 0 0 0 0 0 0 0 0 0 0
0 0 0 0 0 0 0 0 0 0 0 0 0 0 0 0 0 0 0 0 0 0 0 0 0 0 0 0 0 0 0 0 0 0 0 0 0 0 0 0 0 0 0
0 0 0 0 0 0 0 0 0 0 0 0 0 0 0 0 0 0 0 0 0 0 0 0 0 0 0 0 0 0 0 0 0 0 0 0 0 0 0 0 0 0 0
0 0 0 0 0 0 0 0 0 0 0 0 0 0 0 0 0 0 0 0 0 0 0 0 0 0 0 0 0 0 0 0 0 0 0 0 0 0 0 0 0 0 0
0 0 0 0 0 0 0 0 0 0 0 0 0 0 0 0 0 0 0 0 0 0 0 0 0 0 0 0 0 0 0 0 0 0 0 0 0 0 0 0 0 0 0
0 0 0 0 0 0 0 0 0 0 0 0 0 0 0 0 0 0 0 0 0 0 0 0 0 0 0 0 0 0 0 0 0 0 0 0 0 0 0 0 0 0 0
0 0 0 0 0 0 0 0 0 0 0 0 0 0 0 0 0 0 0 0 0 0 0 0 0 0 0 0 0 0 0 0 0 0 0 0 0 0 0 0 0 0 0
0 0 0 0 0 0 0 0 0 0 0 0 0 0 0 0 0 0 0 0 0 0 0 0 0 0 0 0 0 0 0 0 0 0 0 0 0 0 0 0 0 0 0
0 0 0 0 0 0 0 0 0 0 0 0 0 0 0 0 0 0 0 0 0 0 0 0 0 0 0 0 0 0 0 0 0 0 0 0 0 0 0 0 0 0 0
0 0 0 0 0 0 0 0 0 0 0 0 0 0 0 0 0 0 0 0 0 0 0 0 0 0 0 0 0 0 0 0 0 0 0 0 0 0 0 0 0 0 0
Wind_Speed
4 4 3 3 4 4 4 4 4 5 5 5 5 5 5 5 5 5 3 9 12 13 15 16 16 16 15 15 16 16 16 16 15 15 15 15 15 15 15 15 14 14 14
4 4 4 4 4 4 4 4 5 4 4 4 5 5 6 6 6 6 5 6 12 14 16 17 17 17 17 17 17 17 17 17 16 16 16 16 16 16 16 16 16 16 16
5 4 4 4 4 4 4 3 4 3 3 4 5 6 5 6 6 7 6 5 6 11 15 17 18 17 17 17 17 17 17 17 17 16 16 16 17 17 17 17 17 17 17
7 5 4 4 4 4 4 4 3 3 4 4 4 4 4 5 7 7 6 6 5 5 9 15 16 17 17 18 18 18 18 17 17 16 16 16 17 17 18 18 18 18 18
8 6 5 4 4 4 4 4 4 3 4 4 4 4 4 5 6 6 7 7 7 6 5 8 13 14 16 18 18 18 18 18 18 16 15 15 16 17 18 18 19 19 19
8 7 5 6 5 4 4 4 4 4 3 3 4 5 5 6 6 6 7 6 6 7 6 6 5 8 14 17 17 17 18 18 18 17 16 16 16 17 18 18 19 19 19
8 8 6 6 6 5 6 6 4 5 4 3 2 4 5 8 8 6 6 5 6 6 5 6 5 4 5 12 15 16 17 17 17 17 16 16 17 17 18 18 18 18 18
7 7 8 6 6 5 6 6 5 4 4 4 3 2 4 4 4 6 5 5 5 4 5 6 6 6 5 4 6 12 15 16 16 17 16 16 16 17 18 18 18 18 18
7 7 7 7 6 6 6 7 6 6 5 4 5 4 3 4 3 3 4 4 4 4 4 4 5 5 5 4 4 7 10 12 15 16 16 16 16 17 17 18 18 17 17
8 8 7 7 7 6 6 6 6 6 5 4 4 5 5 3 2 4 3 3 4 4 5 4 4 5 5 4 5 7 8 9 11 12 14 14 15 16 16 16 16 17 16
7 7 7 7 7 6 6 5 5 6 5 5 4 3 5 5 5 5 6 4 3 3 4 4 4 4 4 4 4 5 8 9 9 10 11 13 14 14 15 15 16 16 16
4 6 6 6 6 6 6 6 5 6 5 6 5 4 3 3 4 5 6 5 5 4 4 4 4 3 3 3 4 6 7 8 9 10 10 11 12 13 14 14 15 15 15
3 5 5 5 5 5 5 5 4 5 5 5 6 5 4 4 3 3 5 5 6 4 4 3 3 2 2 2 3 5 6 7 8 9 9 9 10 11 12 12 13 14 14
3 4 5 5 4 4 4 4 3 4 3 4 4 4 3 3 3 3 3 4 6 5 4 4 2 2 2 2 4 5 4 6 8 8 8 8 9 10 10 11 12 12 12
2 3 4 4 4 3 3 3 3 3 3 3 3 3 3 3 2 2 3 3 4 7 6 3 2 2 2 2 4 4 4 6 7 7 8 9 9 10 10 10 10 11 12
1 2 2 3 2 2 2 2 2 2 2 2 2 2 2 2 2 2 2 3 3 5 6 3 2 3 3 3 4 4 4 6 6 7 7 8 8 9 9 9 10 11 11
2 2 2 3 2 2 1 1 1 1 1 1 1 1 2 1 2 2 2 2 3 3 6 5 3 3 3 4 4 4 4 4 4 7 8 8 8 9 8 9 10 10 11
2 2 3 3 3 3 2 1 1 1 1 0 0 1 1 1 2 2 2 2 3 2 4 7 5 3 4 4 4 4 4 4 4 7 8 8 8 8 9 9 10 10 9
3 3 3 3 3 3 2 2 1 1 1 1 1 1 2 2 2 2 2 3 3 3 3 4 6 4 3 4 5 5 5 4 5 6 7 7 7 9 10 10 10 9 9
3 3 3 3 3 3 3 2 2 2 2 2 2 2 2 2 2 3 2 3 3 3 3 4 5 4 3 3 3 4 6 5 6 5 6 6 7 9 10 10 10 9 9
4 3 4 4 3 3 3 3 2 3 2 2 2 2 3 3 4 3 2 3 3 3 3 3 4 4 4 4 4 4 6 6 6 3 4 5 5 5 5 7 8 9 10
3 4 4 4 4 3 6 6 4 3 2 2 2 2 3 3 4 5 5 4 4 3 4 4 4 5 6 5 5 4 5 6 6 3 5 7 4 5 5 4 8 10 11
4 4 4 4 4 6 8 7 6 3 3 2 2 2 3 3 4 4 5 5 5 6 5 4 5 6 6 5 6 6 5 6 7 5 5 7 4 5 5 6 12 12 10
3 4 4 4 4 5 8 8 7 4 3 3 3 3 3 3 4 5 4 4 4 4 5 4 5 6 5 5 5 6 7 7 7 4 3 6 5 5 6 5 9 10 10
4 4 4 4 4 5 7 7 7 3 3 4 4 4 4 4 7 7 5 4 4 4 6 7 8 8 9 9 7 4 4 5 6 5 2 3 5 6 6 5 6 9 11
4 4 4 4 4 4 6 7 6 3 3 3 3 3 5 6 7 7 4 4 5 5 5 6 6 7 6 7 8 4 4 4 5 5 2 3 4 5 6 4 4 5 6
Wind_Direction
195 201 197 198 199 197 196 204 216 224 224 228 231 232 239 246 249 248 240 227 227 237 250 256 258 258 257 256 253 251 251 250 247 246 244 245 247 248 247 247 247 247 248
199 200 203 203 208 207 204 202 213 224 223 224 235 239 239 242 245 245 241 236 234 237 246 254 257 259 259 258 257 255 254 253 251 248 246 245 246 247 248 247 246 246 246
208 205 206 207 209 211 212 212 223 227 229 229 235 239 239 238 242 245 244 240 236 236 241 249 254 257 259 260 260 259 258 257 254 251 248 246 246 246 247 248 248 248 247
208 212 211 213 209 206 204 209 218 225 231 234 240 245 244 242 243 245 244 241 238 238 236 241 247 252 257 260 261 261 261 260 258 256 252 249 249 248 248 248 249 249 248
207 209 212 215 212 208 207 210 214 217 231 239 245 251 252 251 249 248 245 243 240 238 236 237 237 243 251 257 260 262 262 262 262 261 258 255 253 252 252 251 250 249 249
204 206 212 216 213 211 211 210 217 220 227 240 261 266 260 255 250 246 246 245 241 239 237 238 236 239 242 251 258 262 264 265 264 264 262 260 259 257 256 255 253 251 250
200 203 209 212 211 213 213 212 211 224 227 218 253 275 265 250 243 240 236 238 241 239 235 237 235 236 241 244 252 259 265 267 267 266 266 265 264 262 261 260 258 257 255
206 205 208 210 209 212 214 213 207 212 216 195 202 253 290 292 254 235 229 231 240 239 239 237 233 235 237 233 244 253 262 268 270 271 271 271 270 268 266 264 262 261 260
213 209 209 211 211 209 214 212 208 209 219 211 201 208 241 264 303 273 233 226 230 236 242 243 241 242 238 236 245 256 260 265 271 274 275 275 275 274 273 271 268 265 264
212 213 214 214 215 213 215 214 210 210 213 221 215 219 231 245 273 297 289 255 245 243 244 245 246 246 241 239 242 252 259 262 266 272 276 278 278 277 276 275 274 272 269
206 210 211 213 217 218 218 212 209 211 212 218 217 214 234 245 241 255 278 284 278 257 247 245 249 249 246 240 243 255 261 264 265 267 272 277 279 280 280 279 278 276 274
197 203 207 212 215 216 218 217 214 215 217 219 225 220 213 224 230 238 257 271 274 268 257 252 253 255 251 245 251 262 266 268 270 272 272 273 276 279 281 280 280 281 279
193 202 203 210 213 217 218 215 215 221 221 222 227 233 232 238 240 241 253 270 275 275 266 262 259 266 272 269 277 279 273 275 276 277 275 274 277 279 282 284 286 286 284
193 187 195 201 204 208 214 212 213 219 222 225 233 237 244 250 249 250 255 269 281 279 269 264 286 286 290 283 297 296 293 294 288 285 282 280 281 284 286 286 288 289 289
171 173 179 184 193 200 205 203 210 211 212 222 233 242 249 262 264 267 266 257 266 281 282 276 281 312 314 319 329 319 310 310 300 298 296 292 288 289 289 288 288 290 288
116 130 139 152 166 180 184 187 199 204 204 222 228 238 252 268 277 281 278 275 263 267 276 288 300 335 339 329 327 312 305 313 307 307 305 302 299 297 294 292 292 291 289
99 111 117 119 119 116 117 145 164 149 181 217 248 253 272 292 290 300 294 289 283 274 272 285 301 316 319 319 321 319 316 315 312 308 304 301 299 299 298 296 293 293 290
92 94 97 100 96 89 86 106 126 128 145 149 354 350 325 342 328 319 315 311 305 305 285 288 300 315 315 317 321 321 319 315 306 310 308 303 301 303 303 300 297 295 294
87 83 87 94 94 91 86 85 107 101 90 67 43 24 7 15 350 344 339 329 320 319 302 290 296 307 312 331 327 322 318 310 313 311 311 308 305 306 303 299 298 296 294
88 84 81 81 79 78 78 72 74 80 77 66 53 42 29 22 356 341 333 329 326 319 312 299 299 308 311 321 326 319 318 316 311 311 309 311 309 303 296 294 291 289 288
84 86 86 79 71 67 64 65 71 76 71 64 54 44 41 36 20 359 344 332 328 317 314 307 303 309 313 328 324 322 310 312 305 299 311 308 305 298 295 292 287 287 289
85 87 87 84 72 62 61 62 65 71 70 62 49 33 34 28 15 9 4 355 346 322 312 306 300 304 310 317 317 314 309 314 305 316 317 303 301 294 295 291 298 297 291
88 85 76 76 70 60 61 59 57 59 60 54 45 33 25 22 10 360 358 353 345 341 328 311 303 306 311 314 314 310 305 297 289 300 306 294 301 294 300 302 303 300 298
91 88 82 79 73 61 62 60 59 59 57 48 40 34 26 17 14 4 354 350 345 344 337 323 307 307 312 313 304 296 294 295 290 288 284 286 301 302 308 298 297 300 303
90 85 85 80 76 62 59 59 60 60 56 42 33 29 23 19 14 12 5 349 341 340 344 336 327 324 326 326 328 321 313 309 302 299 288 285 304 314 304 294 300 307 307
99 93 84 75 73 62 55 54 54 60 56 41 32 29 24 19 14 16 10 351 337 336 340 338 336 334 331 332 337 326 309 301 302 297 307 318 308 325 310 301 314 313 306